Location: Unspecified
(43.8044°N, 11.0278°E)
Time: 23:14:21
(UTC+01:00)

Resurs 1-4 Rocket - Visible Passes

Search period start: 28 January 2015 00:00
Search period end: 07 February 2015 00:00
Orbit: 801 x 814 km, 98.4° (Epoch: 27 January)

Date Brightness Start Highest point End Pass type
(mag) Time Alt. Az. Time Alt. Az. Time Alt. Az.
28 Jan 4.6 04:47:48 10° N 04:47:56 11° N 04:47:56 11° N visible
29 Jan 4.7 04:23:11 10° N 04:23:17 11° N 04:23:17 11° N visible
31 Jan 4.3 05:14:45 10° N 05:15:07 12° N 05:15:07 12° N visible
01 Feb 4.4 04:49:54 10° N 04:50:28 13° N 04:50:28 13° N visible
02 Feb 4.5 04:25:16 10° N 04:25:50 13° N 04:25:50 13° N visible
03 Feb 4.7 04:00:47 10° NNE 04:01:12 12° NNE 04:01:12 12° NNE visible
03 Feb 4.3 05:42:04 10° NNW 05:42:18 11° NNW 05:42:18 11° NNW visible
04 Feb 4.9 03:36:30 10° NNE 03:36:35 10° NNE 03:36:35 10° NNE visible
04 Feb 4.2 05:16:52 10° N 05:17:40 14° NNW 05:17:40 14° NNW visible
05 Feb 4.2 04:52:00 10° N 04:53:03 16° N 04:53:03 16° N visible
06 Feb 4.2 04:27:20 10° N 04:28:25 16° N 04:28:25 16° N visible
